Huvudsida
METAR-TAF:

METAR-TAF

Flygplatser :

Namsos, Norge

Namsos flygplats. Høknesøra

latitud: 64-28N, longitud: 011-35E, höjd: 0 m

Aktuellt väderrapport

Denna rapport gjordes för 6 timmar och 12 minuter sedan, klockan 08:50 UTC
Vind 20 kt från sydväst
Temperatur 5°C
Fuktighet 87%
Tryck 1004 hPa
Sikt 10 km eller mer
Spridda moln på en höjd av 1400 ft
Brutna moln på en höjd av 2100 ft
regnskurar

METAR: ENNM 210850Z 23020KT 9999 SHRA SCT014 BKN021 05/03 Q1004

Tid: 17:02 (15:02 UTC)


TAF: saknas

Aktuella väderrapporter och prognoser från 4000 flygplatser (METAR- och TAF-rapporter).

De tillgängliga stationerna syns som gula och röda prickar på kartan.

För musen över prickarna för att se namnen på stationerna.

Klicka sedan för att få väderrapporter och prognoser.

För att ändra kartan: Klicka på de gröna knapparna med ett svart kors på för att zooma in; den gröna knappen med ett streck på för att zooma ut; eller på de gröna pilarna för angränsande kartor.


METAR-TAF: